Location: Chmeln�
(49.6483°N, 14.9871°E)
Time: 22:07:20
(UTC+00:00)

IGS 5A - Pass Details

Date: 18 September 2020
Orbit: 583 x 588 km, 97.6° (Epoch: 09 October)

Event Time Altitude Azimuth Distance (km) Brightness Sun altitude
Exits shadow 19:37:08 46° 31° (NNE) 791 4.0 -23.8°
Drops below altitude 10° 19:40:25 10° 355° (N) 1,919 6.6 -24.2°
Sets 19:42:36 0° 351° (N) 2,823 7.6 -24.5°
